Index of /20260417/WXO-DD/model_gdps/15km/00/039
Name Last modified Size Description
Parent Directory -
20260417T00Z_MSC_GDPS_AbsoluteVorticity_IsbL-0200_LatLon0.15_PT039H.grib2 2026-04-17 04:04 1.5M
20260417T00Z_MSC_GDPS_AbsoluteVorticity_IsbL-0250_LatLon0.15_PT039H.grib2 2026-04-17 04:04 1.3M
20260417T00Z_MSC_GDPS_AbsoluteVorticity_IsbL-0500_LatLon0.15_PT039H.grib2 2026-04-17 04:04 1.2M
20260417T00Z_MSC_GDPS_AbsoluteVorticity_IsbL-0700_LatLon0.15_PT039H.grib2 2026-04-17 04:04 1.6M
20260417T00Z_MSC_GDPS_AbsoluteVorticity_IsbL-0850_LatLon0.15_PT039H.grib2 2026-04-17 04:04 1.6M
20260417T00Z_MSC_GDPS_AirTemp_AGL-120m_LatLon0.15_PT039H.grib2 2026-04-17 04:04 910K
20260417T00Z_MSC_GDPS_AirTemp_AGL-2m_LatLon0.15_PT039H.grib2 2026-04-17 04:04 1.0M
20260417T00Z_MSC_GDPS_AirTemp_AGL-40m_LatLon0.15_PT039H.grib2 2026-04-17 04:04 930K
20260417T00Z_MSC_GDPS_AirTemp_AGL-80m_LatLon0.15_PT039H.grib2 2026-04-17 04:04 918K
20260417T00Z_MSC_GDPS_AirTemp_IsbL-0001_LatLon0.15_PT039H.grib2 2026-04-17 04:04 712K
20260417T00Z_MSC_GDPS_AirTemp_IsbL-0005_LatLon0.15_PT039H.grib2 2026-04-17 04:04 683K
20260417T00Z_MSC_GDPS_AirTemp_IsbL-0010_LatLon0.15_PT039H.grib2 2026-04-17 04:04 756K
20260417T00Z_MSC_GDPS_AirTemp_IsbL-0020_LatLon0.15_PT039H.grib2 2026-04-17 04:04 700K
20260417T00Z_MSC_GDPS_AirTemp_IsbL-0030_LatLon0.15_PT039H.grib2 2026-04-17 04:04 753K
20260417T00Z_MSC_GDPS_AirTemp_IsbL-0050_LatLon0.15_PT039H.grib2 2026-04-17 04:04 819K
20260417T00Z_MSC_GDPS_AirTemp_IsbL-0100_LatLon0.15_PT039H.grib2 2026-04-17 04:04 950K
20260417T00Z_MSC_GDPS_AirTemp_IsbL-0150_LatLon0.15_PT039H.grib2 2026-04-17 04:04 1.0M
20260417T00Z_MSC_GDPS_AirTemp_IsbL-0175_LatLon0.15_PT039H.grib2 2026-04-17 04:04 967K
20260417T00Z_MSC_GDPS_AirTemp_IsbL-0200_LatLon0.15_PT039H.grib2 2026-04-17 04:04 1.0M
20260417T00Z_MSC_GDPS_AirTemp_IsbL-0225_LatLon0.15_PT039H.grib2 2026-04-17 04:04 1.0M
20260417T00Z_MSC_GDPS_AirTemp_IsbL-0250_LatLon0.15_PT039H.grib2 2026-04-17 04:04 1.0M
20260417T00Z_MSC_GDPS_AirTemp_IsbL-0275_LatLon0.15_PT039H.grib2 2026-04-17 04:04 1.0M
20260417T00Z_MSC_GDPS_AirTemp_IsbL-0300_LatLon0.15_PT039H.grib2 2026-04-17 04:04 1.0M
20260417T00Z_MSC_GDPS_AirTemp_IsbL-0350_LatLon0.15_PT039H.grib2 2026-04-17 04:04 931K
20260417T00Z_MSC_GDPS_AirTemp_IsbL-0400_LatLon0.15_PT039H.grib2 2026-04-17 04:04 941K
20260417T00Z_MSC_GDPS_AirTemp_IsbL-0450_LatLon0.15_PT039H.grib2 2026-04-17 04:04 963K
20260417T00Z_MSC_GDPS_AirTemp_IsbL-0500_LatLon0.15_PT039H.grib2 2026-04-17 04:04 1.0M
20260417T00Z_MSC_GDPS_AirTemp_IsbL-0550_LatLon0.15_PT039H.grib2 2026-04-17 04:04 1.0M
20260417T00Z_MSC_GDPS_AirTemp_IsbL-0600_LatLon0.15_PT039H.grib2 2026-04-17 04:04 900K
20260417T00Z_MSC_GDPS_AirTemp_IsbL-0650_LatLon0.15_PT039H.grib2 2026-04-17 04:04 925K
20260417T00Z_MSC_GDPS_AirTemp_IsbL-0700_LatLon0.15_PT039H.grib2 2026-04-17 04:04 956K
20260417T00Z_MSC_GDPS_AirTemp_IsbL-0750_LatLon0.15_PT039H.grib2 2026-04-17 04:04 1.0M
20260417T00Z_MSC_GDPS_AirTemp_IsbL-0800_LatLon0.15_PT039H.grib2 2026-04-17 04:04 1.1M
20260417T00Z_MSC_GDPS_AirTemp_IsbL-0850_LatLon0.15_PT039H.grib2 2026-04-17 04:04 1.1M
20260417T00Z_MSC_GDPS_AirTemp_IsbL-0875_LatLon0.15_PT039H.grib2 2026-04-17 04:04 1.2M
20260417T00Z_MSC_GDPS_AirTemp_IsbL-0900_LatLon0.15_PT039H.grib2 2026-04-17 04:04 1.1M
20260417T00Z_MSC_GDPS_AirTemp_IsbL-0925_LatLon0.15_PT039H.grib2 2026-04-17 04:04 1.1M
20260417T00Z_MSC_GDPS_AirTemp_IsbL-0950_LatLon0.15_PT039H.grib2 2026-04-17 04:04 1.1M
20260417T00Z_MSC_GDPS_AirTemp_IsbL-0970_LatLon0.15_PT039H.grib2 2026-04-17 04:04 1.2M
20260417T00Z_MSC_GDPS_AirTemp_IsbL-0985_LatLon0.15_PT039H.grib2 2026-04-17 04:04 1.1M
20260417T00Z_MSC_GDPS_AirTemp_IsbL-1000_LatLon0.15_PT039H.grib2 2026-04-17 04:04 1.1M
20260417T00Z_MSC_GDPS_AirTemp_IsbL-1015_LatLon0.15_PT039H.grib2 2026-04-17 04:04 1.1M
20260417T00Z_MSC_GDPS_Albedo_Sfc_LatLon0.15_PT039H.grib2 2026-04-17 04:04 246K
20260417T00Z_MSC_GDPS_CAPE_Sfc_LatLon0.15_PT039H.grib2 2026-04-17 04:04 3.7M
20260417T00Z_MSC_GDPS_CIN_Sfc_LatLon0.15_PT039H.grib2 2026-04-17 04:04 2.8M
20260417T00Z_MSC_GDPS_CloudWater_EAtm_LatLon0.15_PT039H.grib2 2026-04-17 04:04 531K
20260417T00Z_MSC_GDPS_ConvectivePrecip-Accum_Sfc_LatLon0.15_PT039H.grib2 2026-04-17 04:04 2.7M
20260417T00Z_MSC_GDPS_DewPointDepression_AGL-2m_LatLon0.15_PT039H.grib2 2026-04-17 04:04 592K
20260417T00Z_MSC_GDPS_DewPointDepression_IsbL-0010_LatLon0.15_PT039H.grib2 2026-04-17 04:04 5.8K
20260417T00Z_MSC_GDPS_DewPointDepression_IsbL-0020_LatLon0.15_PT039H.grib2 2026-04-17 04:04 59K
20260417T00Z_MSC_GDPS_DewPointDepression_IsbL-0030_LatLon0.15_PT039H.grib2 2026-04-17 04:04 70K
20260417T00Z_MSC_GDPS_DewPointDepression_IsbL-0050_LatLon0.15_PT039H.grib2 2026-04-17 04:04 360K
20260417T00Z_MSC_GDPS_DewPointDepression_IsbL-0100_LatLon0.15_PT039H.grib2 2026-04-17 04:04 385K
20260417T00Z_MSC_GDPS_DewPointDepression_IsbL-0150_LatLon0.15_PT039H.grib2 2026-04-17 04:04 466K
20260417T00Z_MSC_GDPS_DewPointDepression_IsbL-0175_LatLon0.15_PT039H.grib2 2026-04-17 04:04 536K
20260417T00Z_MSC_GDPS_DewPointDepression_IsbL-0200_LatLon0.15_PT039H.grib2 2026-04-17 04:04 611K
20260417T00Z_MSC_GDPS_DewPointDepression_IsbL-0225_LatLon0.15_PT039H.grib2 2026-04-17 04:04 754K
20260417T00Z_MSC_GDPS_DewPointDepression_IsbL-0250_LatLon0.15_PT039H.grib2 2026-04-17 04:04 883K
20260417T00Z_MSC_GDPS_DewPointDepression_IsbL-0275_LatLon0.15_PT039H.grib2 2026-04-17 04:04 905K
20260417T00Z_MSC_GDPS_DewPointDepression_IsbL-0300_LatLon0.15_PT039H.grib2 2026-04-17 04:04 938K
20260417T00Z_MSC_GDPS_DewPointDepression_IsbL-0350_LatLon0.15_PT039H.grib2 2026-04-17 04:04 959K
20260417T00Z_MSC_GDPS_DewPointDepression_IsbL-0400_LatLon0.15_PT039H.grib2 2026-04-17 04:04 1.0M
20260417T00Z_MSC_GDPS_DewPointDepression_IsbL-0450_LatLon0.15_PT039H.grib2 2026-04-17 04:04 1.0M
20260417T00Z_MSC_GDPS_DewPointDepression_IsbL-0500_LatLon0.15_PT039H.grib2 2026-04-17 04:04 1.0M
20260417T00Z_MSC_GDPS_DewPointDepression_IsbL-0550_LatLon0.15_PT039H.grib2 2026-04-17 04:04 1.0M
20260417T00Z_MSC_GDPS_DewPointDepression_IsbL-0600_LatLon0.15_PT039H.grib2 2026-04-17 04:04 1.1M
20260417T00Z_MSC_GDPS_DewPointDepression_IsbL-0650_LatLon0.15_PT039H.grib2 2026-04-17 04:04 1.1M
20260417T00Z_MSC_GDPS_DewPointDepression_IsbL-0700_LatLon0.15_PT039H.grib2 2026-04-17 04:04 1.1M
20260417T00Z_MSC_GDPS_DewPointDepression_IsbL-0750_LatLon0.15_PT039H.grib2 2026-04-17 04:04 1.1M
20260417T00Z_MSC_GDPS_DewPointDepression_IsbL-0800_LatLon0.15_PT039H.grib2 2026-04-17 04:04 1.2M
20260417T00Z_MSC_GDPS_DewPointDepression_IsbL-0850_LatLon0.15_PT039H.grib2 2026-04-17 04:04 1.2M
20260417T00Z_MSC_GDPS_DewPointDepression_IsbL-0875_LatLon0.15_PT039H.grib2 2026-04-17 04:04 1.1M
20260417T00Z_MSC_GDPS_DewPointDepression_IsbL-0900_LatLon0.15_PT039H.grib2 2026-04-17 04:04 1.1M
20260417T00Z_MSC_GDPS_DewPointDepression_IsbL-0925_LatLon0.15_PT039H.grib2 2026-04-17 04:04 1.0M
20260417T00Z_MSC_GDPS_DewPointDepression_IsbL-0950_LatLon0.15_PT039H.grib2 2026-04-17 04:04 1.0M
20260417T00Z_MSC_GDPS_DewPointDepression_IsbL-0970_LatLon0.15_PT039H.grib2 2026-04-17 04:04 1.0M
20260417T00Z_MSC_GDPS_DewPointDepression_IsbL-0985_LatLon0.15_PT039H.grib2 2026-04-17 04:04 1.0M
20260417T00Z_MSC_GDPS_DewPointDepression_IsbL-1000_LatLon0.15_PT039H.grib2 2026-04-17 04:04 970K
20260417T00Z_MSC_GDPS_DewPointDepression_IsbL-1015_LatLon0.15_PT039H.grib2 2026-04-17 04:04 907K
20260417T00Z_MSC_GDPS_DewPoint_AGL-2m_LatLon0.15_PT039H.grib2 2026-04-17 04:04 613K
20260417T00Z_MSC_GDPS_DownwardLongwaveRadiationFlux-Accum_Sfc_LatLon0.15_PT039H.grib2 2026-04-17 04:04 741K
20260417T00Z_MSC_GDPS_DownwardShortwaveRadiationFlux-Accum_NTAtm_LatLon0.15_PT039H.grib2 2026-04-17 04:04 319K
20260417T00Z_MSC_GDPS_DownwardShortwaveRadiationFlux-Accum_Sfc_LatLon0.15_PT039H.grib2 2026-04-17 04:04 1.0M
20260417T00Z_MSC_GDPS_FreezingRain-Accum1h_Sfc_LatLon0.15_PT039H.grib2 2026-04-17 04:04 42K
20260417T00Z_MSC_GDPS_FreezingRain-Accum3h_Sfc_LatLon0.15_PT039H.grib2 2026-04-17 04:04 48K
20260417T00Z_MSC_GDPS_FreezingRain-Accum_Sfc_LatLon0.15_PT039H.grib2 2026-04-17 04:04 208K
20260417T00Z_MSC_GDPS_GeopotentialHeight_IsbL-0001_LatLon0.15_PT039H.grib2 2026-04-17 04:04 397K
20260417T00Z_MSC_GDPS_GeopotentialHeight_IsbL-0005_LatLon0.15_PT039H.grib2 2026-04-17 04:04 506K
20260417T00Z_MSC_GDPS_GeopotentialHeight_IsbL-0010_LatLon0.15_PT039H.grib2 2026-04-17 04:04 439K
20260417T00Z_MSC_GDPS_GeopotentialHeight_IsbL-0020_LatLon0.15_PT039H.grib2 2026-04-17 04:04 579K
20260417T00Z_MSC_GDPS_GeopotentialHeight_IsbL-0030_LatLon0.15_PT039H.grib2 2026-04-17 04:04 581K
20260417T00Z_MSC_GDPS_GeopotentialHeight_IsbL-0050_LatLon0.15_PT039H.grib2 2026-04-17 04:04 585K
20260417T00Z_MSC_GDPS_GeopotentialHeight_IsbL-0100_LatLon0.15_PT039H.grib2 2026-04-17 04:04 621K
20260417T00Z_MSC_GDPS_GeopotentialHeight_IsbL-0150_LatLon0.15_PT039H.grib2 2026-04-17 04:04 637K
20260417T00Z_MSC_GDPS_GeopotentialHeight_IsbL-0175_LatLon0.15_PT039H.grib2 2026-04-17 04:04 640K
20260417T00Z_MSC_GDPS_GeopotentialHeight_IsbL-0200_LatLon0.15_PT039H.grib2 2026-04-17 04:04 644K
20260417T00Z_MSC_GDPS_GeopotentialHeight_IsbL-0225_LatLon0.15_PT039H.grib2 2026-04-17 04:04 647K
20260417T00Z_MSC_GDPS_GeopotentialHeight_IsbL-0250_LatLon0.15_PT039H.grib2 2026-04-17 04:04 648K
20260417T00Z_MSC_GDPS_GeopotentialHeight_IsbL-0275_LatLon0.15_PT039H.grib2 2026-04-17 04:04 645K
20260417T00Z_MSC_GDPS_GeopotentialHeight_IsbL-0300_LatLon0.15_PT039H.grib2 2026-04-17 04:04 638K
20260417T00Z_MSC_GDPS_GeopotentialHeight_IsbL-0350_LatLon0.15_PT039H.grib2 2026-04-17 04:04 631K
20260417T00Z_MSC_GDPS_GeopotentialHeight_IsbL-0400_LatLon0.15_PT039H.grib2 2026-04-17 04:04 621K
20260417T00Z_MSC_GDPS_GeopotentialHeight_IsbL-0450_LatLon0.15_PT039H.grib2 2026-04-17 04:04 542K
20260417T00Z_MSC_GDPS_GeopotentialHeight_IsbL-0500_LatLon0.15_PT039H.grib2 2026-04-17 04:04 532K
20260417T00Z_MSC_GDPS_GeopotentialHeight_IsbL-0550_LatLon0.15_PT039H.grib2 2026-04-17 04:04 695K
20260417T00Z_MSC_GDPS_GeopotentialHeight_IsbL-0600_LatLon0.15_PT039H.grib2 2026-04-17 04:04 687K
20260417T00Z_MSC_GDPS_GeopotentialHeight_IsbL-0650_LatLon0.15_PT039H.grib2 2026-04-17 04:04 688K
20260417T00Z_MSC_GDPS_GeopotentialHeight_IsbL-0700_LatLon0.15_PT039H.grib2 2026-04-17 04:04 684K
20260417T00Z_MSC_GDPS_GeopotentialHeight_IsbL-0750_LatLon0.15_PT039H.grib2 2026-04-17 04:04 694K
20260417T00Z_MSC_GDPS_GeopotentialHeight_IsbL-0800_LatLon0.15_PT039H.grib2 2026-04-17 04:04 637K
20260417T00Z_MSC_GDPS_GeopotentialHeight_IsbL-0850_LatLon0.15_PT039H.grib2 2026-04-17 04:04 646K
20260417T00Z_MSC_GDPS_GeopotentialHeight_IsbL-0875_LatLon0.15_PT039H.grib2 2026-04-17 04:04 652K
20260417T00Z_MSC_GDPS_GeopotentialHeight_IsbL-0900_LatLon0.15_PT039H.grib2 2026-04-17 04:04 724K
20260417T00Z_MSC_GDPS_GeopotentialHeight_IsbL-0925_LatLon0.15_PT039H.grib2 2026-04-17 04:04 727K
20260417T00Z_MSC_GDPS_GeopotentialHeight_IsbL-0950_LatLon0.15_PT039H.grib2 2026-04-17 04:04 735K
20260417T00Z_MSC_GDPS_GeopotentialHeight_IsbL-0970_LatLon0.15_PT039H.grib2 2026-04-17 04:04 749K
20260417T00Z_MSC_GDPS_GeopotentialHeight_IsbL-0985_LatLon0.15_PT039H.grib2 2026-04-17 04:04 766K
20260417T00Z_MSC_GDPS_GeopotentialHeight_IsbL-1000_LatLon0.15_PT039H.grib2 2026-04-17 04:04 788K
20260417T00Z_MSC_GDPS_GeopotentialHeight_IsbL-1015_LatLon0.15_PT039H.grib2 2026-04-17 04:04 811K
20260417T00Z_MSC_GDPS_Humidex_Sfc_LatLon0.15_PT039H.grib2 2026-04-17 04:04 5.3M
20260417T00Z_MSC_GDPS_IcePellets-Accum1h_Sfc_LatLon0.15_PT039H.grib2 2026-04-17 04:04 22K
20260417T00Z_MSC_GDPS_IcePellets-Accum3h_Sfc_LatLon0.15_PT039H.grib2 2026-04-17 04:04 26K
20260417T00Z_MSC_GDPS_IcePellets-Accum_Sfc_LatLon0.15_PT039H.grib2 2026-04-17 04:04 86K
20260417T00Z_MSC_GDPS_KIndex_Sfc_LatLon0.15_PT039H.grib2 2026-04-17 04:04 6.0M
20260417T00Z_MSC_GDPS_LatentHeatNetFlux_Sfc_LatLon0.15_PT039H.grib2 2026-04-17 04:04 692K
20260417T00Z_MSC_GDPS_LiftedIndex-MU-VT_IsbL-0500_LatLon0.15_PT039H.grib2 2026-04-17 04:04 5.4M
20260417T00Z_MSC_GDPS_NetLongwaveRadiationFlux-Accum_Sfc_LatLon0.15_PT039H.grib2 2026-04-17 04:04 1.0M
20260417T00Z_MSC_GDPS_NetShortwaveRadiationFlux-Accum_Sfc_LatLon0.15_PT039H.grib2 2026-04-17 04:04 964K
20260417T00Z_MSC_GDPS_O3MixingRatio_LatLon0.15_PT039H.grib2 2026-04-17 04:49 2.0M
20260417T00Z_MSC_GDPS_O3_EAtm_LatLon0.15_PT039H.grib2 2026-04-17 04:49 2.1M
20260417T00Z_MSC_GDPS_PlanetaryBoundaryLayerHeight_Sfc_LatLon0.15_PT039H.grib2 2026-04-17 04:04 2.5M
20260417T00Z_MSC_GDPS_Precip-Accum1h_Sfc_LatLon0.15_PT039H.grib2 2026-04-17 04:04 3.2M
20260417T00Z_MSC_GDPS_Precip-Accum3h_Sfc_LatLon0.15_PT039H.grib2 2026-04-17 04:04 3.5M
20260417T00Z_MSC_GDPS_Precip-Accum_Sfc_LatLon0.15_PT039H.grib2 2026-04-17 04:04 4.7M
20260417T00Z_MSC_GDPS_PrecipRate_Sfc_LatLon0.15_PT039H.grib2 2026-04-17 04:04 2.9M
20260417T00Z_MSC_GDPS_PrecipType-Instant_Sfc_LatLon0.15_PT039H.grib2 2026-04-17 04:04 1.5M
20260417T00Z_MSC_GDPS_Pressure_MSL_LatLon0.15_PT039H.grib2 2026-04-17 04:04 723K
20260417T00Z_MSC_GDPS_Pressure_PVU-1.5_LatLon0.15_PT039H.grib2 2026-04-17 04:04 5.8M
20260417T00Z_MSC_GDPS_Pressure_PVU-1_LatLon0.15_PT039H.grib2 2026-04-17 04:04 6.0M
20260417T00Z_MSC_GDPS_Pressure_PVU-2_LatLon0.15_PT039H.grib2 2026-04-17 04:04 5.6M
20260417T00Z_MSC_GDPS_Pressure_Sfc_LatLon0.15_PT039H.grib2 2026-04-17 04:04 1.1M
20260417T00Z_MSC_GDPS_RadiativeTemp_Sfc_LatLon0.15_PT039H.grib2 2026-04-17 04:04 670K
20260417T00Z_MSC_GDPS_Rain-Accum1h_Sfc_LatLon0.15_PT039H.grib2 2026-04-17 04:04 1.6M
20260417T00Z_MSC_GDPS_Rain-Accum3h_Sfc_LatLon0.15_PT039H.grib2 2026-04-17 04:04 1.7M
20260417T00Z_MSC_GDPS_Rain-Accum_Sfc_LatLon0.15_PT039H.grib2 2026-04-17 04:04 3.5M
20260417T00Z_MSC_GDPS_RelativeHumidity_AGL-2m_LatLon0.15_PT039H.grib2 2026-04-17 04:04 1.1M
20260417T00Z_MSC_GDPS_RelativeHumidity_IsbL-0010_LatLon0.15_PT039H.grib2 2026-04-17 04:04 245K
20260417T00Z_MSC_GDPS_RelativeHumidity_IsbL-0020_LatLon0.15_PT039H.grib2 2026-04-17 04:04 390K
20260417T00Z_MSC_GDPS_RelativeHumidity_IsbL-0030_LatLon0.15_PT039H.grib2 2026-04-17 04:04 388K
20260417T00Z_MSC_GDPS_RelativeHumidity_IsbL-0050_LatLon0.15_PT039H.grib2 2026-04-17 04:04 414K
20260417T00Z_MSC_GDPS_RelativeHumidity_IsbL-0100_LatLon0.15_PT039H.grib2 2026-04-17 04:04 493K
20260417T00Z_MSC_GDPS_RelativeHumidity_IsbL-0150_LatLon0.15_PT039H.grib2 2026-04-17 04:04 660K
20260417T00Z_MSC_GDPS_RelativeHumidity_IsbL-0175_LatLon0.15_PT039H.grib2 2026-04-17 04:04 790K
20260417T00Z_MSC_GDPS_RelativeHumidity_IsbL-0200_LatLon0.15_PT039H.grib2 2026-04-17 04:04 692K
20260417T00Z_MSC_GDPS_RelativeHumidity_IsbL-0225_LatLon0.15_PT039H.grib2 2026-04-17 04:04 778K
20260417T00Z_MSC_GDPS_RelativeHumidity_IsbL-0250_LatLon0.15_PT039H.grib2 2026-04-17 04:04 875K
20260417T00Z_MSC_GDPS_RelativeHumidity_IsbL-0275_LatLon0.15_PT039H.grib2 2026-04-17 04:04 904K
20260417T00Z_MSC_GDPS_RelativeHumidity_IsbL-0300_LatLon0.15_PT039H.grib2 2026-04-17 04:04 946K
20260417T00Z_MSC_GDPS_RelativeHumidity_IsbL-0350_LatLon0.15_PT039H.grib2 2026-04-17 04:04 961K
20260417T00Z_MSC_GDPS_RelativeHumidity_IsbL-0400_LatLon0.15_PT039H.grib2 2026-04-17 04:04 1.0M
20260417T00Z_MSC_GDPS_RelativeHumidity_IsbL-0450_LatLon0.15_PT039H.grib2 2026-04-17 04:04 1.0M
20260417T00Z_MSC_GDPS_RelativeHumidity_IsbL-0500_LatLon0.15_PT039H.grib2 2026-04-17 04:04 1.0M
20260417T00Z_MSC_GDPS_RelativeHumidity_IsbL-0550_LatLon0.15_PT039H.grib2 2026-04-17 04:04 1.1M
20260417T00Z_MSC_GDPS_RelativeHumidity_IsbL-0600_LatLon0.15_PT039H.grib2 2026-04-17 04:04 1.1M
20260417T00Z_MSC_GDPS_RelativeHumidity_IsbL-0650_LatLon0.15_PT039H.grib2 2026-04-17 04:04 1.1M
20260417T00Z_MSC_GDPS_RelativeHumidity_IsbL-0700_LatLon0.15_PT039H.grib2 2026-04-17 04:04 1.1M
20260417T00Z_MSC_GDPS_RelativeHumidity_IsbL-0750_LatLon0.15_PT039H.grib2 2026-04-17 04:04 1.2M
20260417T00Z_MSC_GDPS_RelativeHumidity_IsbL-0800_LatLon0.15_PT039H.grib2 2026-04-17 04:04 1.2M
20260417T00Z_MSC_GDPS_RelativeHumidity_IsbL-0850_LatLon0.15_PT039H.grib2 2026-04-17 04:04 1.3M
20260417T00Z_MSC_GDPS_RelativeHumidity_IsbL-0875_LatLon0.15_PT039H.grib2 2026-04-17 04:04 1.3M
20260417T00Z_MSC_GDPS_RelativeHumidity_IsbL-0900_LatLon0.15_PT039H.grib2 2026-04-17 04:04 1.2M
20260417T00Z_MSC_GDPS_RelativeHumidity_IsbL-0925_LatLon0.15_PT039H.grib2 2026-04-17 04:04 1.2M
20260417T00Z_MSC_GDPS_RelativeHumidity_IsbL-0950_LatLon0.15_PT039H.grib2 2026-04-17 04:04 1.2M
20260417T00Z_MSC_GDPS_RelativeHumidity_IsbL-0970_LatLon0.15_PT039H.grib2 2026-04-17 04:04 1.2M
20260417T00Z_MSC_GDPS_RelativeHumidity_IsbL-0985_LatLon0.15_PT039H.grib2 2026-04-17 04:04 1.1M
20260417T00Z_MSC_GDPS_RelativeHumidity_IsbL-1000_LatLon0.15_PT039H.grib2 2026-04-17 04:04 1.1M
20260417T00Z_MSC_GDPS_RelativeHumidity_IsbL-1015_LatLon0.15_PT039H.grib2 2026-04-17 04:04 1.0M
20260417T00Z_MSC_GDPS_RelativeVorticity_IsbL-0200_LatLon0.15_PT039H.grib2 2026-04-17 04:04 1.5M
20260417T00Z_MSC_GDPS_RelativeVorticity_IsbL-0250_LatLon0.15_PT039H.grib2 2026-04-17 04:04 1.3M
20260417T00Z_MSC_GDPS_RelativeVorticity_IsbL-0500_LatLon0.15_PT039H.grib2 2026-04-17 04:04 1.5M
20260417T00Z_MSC_GDPS_RelativeVorticity_IsbL-0700_LatLon0.15_PT039H.grib2 2026-04-17 04:04 1.6M
20260417T00Z_MSC_GDPS_RelativeVorticity_IsbL-0850_LatLon0.15_PT039H.grib2 2026-04-17 04:04 1.6M
20260417T00Z_MSC_GDPS_Runoff-Accum_Sfc_LatLon0.15_PT039H.grib2 2026-04-17 04:04 93K
20260417T00Z_MSC_GDPS_SensibleHeatNetFlux_Sfc_LatLon0.15_PT039H.grib2 2026-04-17 04:04 463K
20260417T00Z_MSC_GDPS_ShowalterIndex_IsbL-0500_LatLon0.15_PT039H.grib2 2026-04-17 04:04 6.2M
20260417T00Z_MSC_GDPS_Snow-Accum1h_Sfc_LatLon0.15_PT039H.grib2 2026-04-17 04:04 1.0M
20260417T00Z_MSC_GDPS_Snow-Accum3h_Sfc_LatLon0.15_PT039H.grib2 2026-04-17 04:04 878K
20260417T00Z_MSC_GDPS_Snow-Accum_Sfc_LatLon0.15_PT039H.grib2 2026-04-17 04:04 1.9M
20260417T00Z_MSC_GDPS_SnowDensity_Sfc_LatLon0.15_PT039H.grib2 2026-04-17 04:04 265K
20260417T00Z_MSC_GDPS_SnowDepth_Sfc_LatLon0.15_PT039H.grib2 2026-04-17 04:04 1.8M
20260417T00Z_MSC_GDPS_SoilTemp_DBS-0to10cm_LatLon0.15_PT039H.grib2 2026-04-17 04:04 503K
20260417T00Z_MSC_GDPS_SoilTemp_Sfc_LatLon0.15_PT039H.grib2 2026-04-17 04:04 585K
20260417T00Z_MSC_GDPS_SoilVolumetricIceContent_Sfc_LatLon0.15_PT039H.grib2 2026-04-17 04:04 224K
20260417T00Z_MSC_GDPS_SoilVolumetricWaterContent_DBS-0to10cm_LatLon0.15_PT039H.grib2 2026-04-17 04:04 553K
20260417T00Z_MSC_GDPS_SoilVolumetricWaterContent_DBS-0to1cm_LatLon0.15_PT039H.grib2 2026-04-17 04:04 646K
20260417T00Z_MSC_GDPS_SpecificHumidity_AGL-120m_LatLon0.15_PT039H.grib2 2026-04-17 04:04 1.1M
20260417T00Z_MSC_GDPS_SpecificHumidity_AGL-2m_LatLon0.15_PT039H.grib2 2026-04-17 04:04 1.2M
20260417T00Z_MSC_GDPS_SpecificHumidity_AGL-40m_LatLon0.15_PT039H.grib2 2026-04-17 04:04 1.1M
20260417T00Z_MSC_GDPS_SpecificHumidity_AGL-80m_LatLon0.15_PT039H.grib2 2026-04-17 04:04 1.1M
20260417T00Z_MSC_GDPS_SpecificHumidity_IsbL-0001_LatLon0.15_PT039H.grib2 2026-04-17 04:04 1.2M
20260417T00Z_MSC_GDPS_SpecificHumidity_IsbL-0005_LatLon0.15_PT039H.grib2 2026-04-17 04:04 1.2M
20260417T00Z_MSC_GDPS_SpecificHumidity_IsbL-0010_LatLon0.15_PT039H.grib2 2026-04-17 04:04 1.3M
20260417T00Z_MSC_GDPS_SpecificHumidity_IsbL-0020_LatLon0.15_PT039H.grib2 2026-04-17 04:04 1.4M
20260417T00Z_MSC_GDPS_SpecificHumidity_IsbL-0030_LatLon0.15_PT039H.grib2 2026-04-17 04:04 1.4M
20260417T00Z_MSC_GDPS_SpecificHumidity_IsbL-0050_LatLon0.15_PT039H.grib2 2026-04-17 04:04 1.4M
20260417T00Z_MSC_GDPS_SpecificHumidity_IsbL-0100_LatLon0.15_PT039H.grib2 2026-04-17 04:04 1.3M
20260417T00Z_MSC_GDPS_SpecificHumidity_IsbL-0150_LatLon0.15_PT039H.grib2 2026-04-17 04:04 1.3M
20260417T00Z_MSC_GDPS_SpecificHumidity_IsbL-0175_LatLon0.15_PT039H.grib2 2026-04-17 04:04 1.3M
20260417T00Z_MSC_GDPS_SpecificHumidity_IsbL-0200_LatLon0.15_PT039H.grib2 2026-04-17 04:04 1.3M
20260417T00Z_MSC_GDPS_SpecificHumidity_IsbL-0225_LatLon0.15_PT039H.grib2 2026-04-17 04:04 1.3M
20260417T00Z_MSC_GDPS_SpecificHumidity_IsbL-0250_LatLon0.15_PT039H.grib2 2026-04-17 04:04 1.5M
20260417T00Z_MSC_GDPS_SpecificHumidity_IsbL-0275_LatLon0.15_PT039H.grib2 2026-04-17 04:04 1.3M
20260417T00Z_MSC_GDPS_SpecificHumidity_IsbL-0300_LatLon0.15_PT039H.grib2 2026-04-17 04:04 1.2M
20260417T00Z_MSC_GDPS_SpecificHumidity_IsbL-0350_LatLon0.15_PT039H.grib2 2026-04-17 04:04 1.2M
20260417T00Z_MSC_GDPS_SpecificHumidity_IsbL-0400_LatLon0.15_PT039H.grib2 2026-04-17 04:04 1.5M
20260417T00Z_MSC_GDPS_SpecificHumidity_IsbL-0450_LatLon0.15_PT039H.grib2 2026-04-17 04:04 1.3M
20260417T00Z_MSC_GDPS_SpecificHumidity_IsbL-0500_LatLon0.15_PT039H.grib2 2026-04-17 04:04 1.4M
20260417T00Z_MSC_GDPS_SpecificHumidity_IsbL-0550_LatLon0.15_PT039H.grib2 2026-04-17 04:04 1.6M
20260417T00Z_MSC_GDPS_SpecificHumidity_IsbL-0600_LatLon0.15_PT039H.grib2 2026-04-17 04:04 1.4M
20260417T00Z_MSC_GDPS_SpecificHumidity_IsbL-0650_LatLon0.15_PT039H.grib2 2026-04-17 04:04 1.5M
20260417T00Z_MSC_GDPS_SpecificHumidity_IsbL-0700_LatLon0.15_PT039H.grib2 2026-04-17 04:04 1.6M
20260417T00Z_MSC_GDPS_SpecificHumidity_IsbL-0750_LatLon0.15_PT039H.grib2 2026-04-17 04:04 1.7M
20260417T00Z_MSC_GDPS_SpecificHumidity_IsbL-0800_LatLon0.15_PT039H.grib2 2026-04-17 04:04 1.8M
20260417T00Z_MSC_GDPS_SpecificHumidity_IsbL-0850_LatLon0.15_PT039H.grib2 2026-04-17 04:04 1.9M
20260417T00Z_MSC_GDPS_SpecificHumidity_IsbL-0875_LatLon0.15_PT039H.grib2 2026-04-17 04:04 1.9M
20260417T00Z_MSC_GDPS_SpecificHumidity_IsbL-0900_LatLon0.15_PT039H.grib2 2026-04-17 04:04 1.6M
20260417T00Z_MSC_GDPS_SpecificHumidity_IsbL-0925_LatLon0.15_PT039H.grib2 2026-04-17 04:04 1.6M
20260417T00Z_MSC_GDPS_SpecificHumidity_IsbL-0950_LatLon0.15_PT039H.grib2 2026-04-17 04:04 1.5M
20260417T00Z_MSC_GDPS_SpecificHumidity_IsbL-0970_LatLon0.15_PT039H.grib2 2026-04-17 04:04 1.5M
20260417T00Z_MSC_GDPS_SpecificHumidity_IsbL-0985_LatLon0.15_PT039H.grib2 2026-04-17 04:04 1.5M
20260417T00Z_MSC_GDPS_SpecificHumidity_IsbL-1000_LatLon0.15_PT039H.grib2 2026-04-17 04:04 1.5M
20260417T00Z_MSC_GDPS_SpecificHumidity_IsbL-1015_LatLon0.15_PT039H.grib2 2026-04-17 04:04 1.4M
20260417T00Z_MSC_GDPS_SpecificHumidity_Sfc_LatLon0.15_PT039H.grib2 2026-04-17 04:04 664K
20260417T00Z_MSC_GDPS_Thickness_IsbL-0850to0700_LatLon0.15_PT039H.grib2 2026-04-17 04:04 470K
20260417T00Z_MSC_GDPS_Thickness_IsbL-1000to0500_LatLon0.15_PT039H.grib2 2026-04-17 04:04 376K
20260417T00Z_MSC_GDPS_Thickness_IsbL-1000to0850_LatLon0.15_PT039H.grib2 2026-04-17 04:04 492K
20260417T00Z_MSC_GDPS_TotalCloudCover_Sfc_LatLon0.15_PT039H.grib2 2026-04-17 04:04 819K
20260417T00Z_MSC_GDPS_TotalTotalsIndex_Sfc_LatLon0.15_PT039H.grib2 2026-04-17 04:04 6.2M
20260417T00Z_MSC_GDPS_UVIndex-ClearSky_Sfc_LatLon0.15_PT039H.grib2 2026-04-17 04:49 1.0M
20260417T00Z_MSC_GDPS_UVIndex_Sfc_LatLon0.15_PT039H.grib2 2026-04-17 04:49 1.4M
20260417T00Z_MSC_GDPS_UpwardLongwaveRadiationFlux_NTAtm_LatLon0.15_PT039H.grib2 2026-04-17 04:04 839K
20260417T00Z_MSC_GDPS_VerticalVelocity_IsbL-0200_LatLon0.15_PT039H.grib2 2026-04-17 04:04 1.2M
20260417T00Z_MSC_GDPS_VerticalVelocity_IsbL-0250_LatLon0.15_PT039H.grib2 2026-04-17 04:04 1.0M
20260417T00Z_MSC_GDPS_VerticalVelocity_IsbL-0500_LatLon0.15_PT039H.grib2 2026-04-17 04:04 1.3M
20260417T00Z_MSC_GDPS_VerticalVelocity_IsbL-0600_LatLon0.15_PT039H.grib2 2026-04-17 04:04 1.1M
20260417T00Z_MSC_GDPS_VerticalVelocity_IsbL-0700_LatLon0.15_PT039H.grib2 2026-04-17 04:04 1.1M
20260417T00Z_MSC_GDPS_VerticalVelocity_IsbL-0850_LatLon0.15_PT039H.grib2 2026-04-17 04:04 1.3M
20260417T00Z_MSC_GDPS_WindChill_Sfc_LatLon0.15_PT039H.grib2 2026-04-17 04:04 5.3M
20260417T00Z_MSC_GDPS_WindDir_AGL-10m_LatLon0.15_PT039H.grib2 2026-04-17 04:04 1.4M
20260417T00Z_MSC_GDPS_WindDir_AGL-120m_LatLon0.15_PT039H.grib2 2026-04-17 04:04 1.4M
20260417T00Z_MSC_GDPS_WindDir_AGL-40m_LatLon0.15_PT039H.grib2 2026-04-17 04:04 1.4M
20260417T00Z_MSC_GDPS_WindDir_AGL-80m_LatLon0.15_PT039H.grib2 2026-04-17 04:04 1.4M
20260417T00Z_MSC_GDPS_WindDir_IsbL-0001_LatLon0.15_PT039H.grib2 2026-04-17 04:04 641K
20260417T00Z_MSC_GDPS_WindDir_IsbL-0005_LatLon0.15_PT039H.grib2 2026-04-17 04:04 800K
20260417T00Z_MSC_GDPS_WindDir_IsbL-0010_LatLon0.15_PT039H.grib2 2026-04-17 04:04 862K
20260417T00Z_MSC_GDPS_WindDir_IsbL-0020_LatLon0.15_PT039H.grib2 2026-04-17 04:04 925K
20260417T00Z_MSC_GDPS_WindDir_IsbL-0030_LatLon0.15_PT039H.grib2 2026-04-17 04:04 889K
20260417T00Z_MSC_GDPS_WindDir_IsbL-0050_LatLon0.15_PT039H.grib2 2026-04-17 04:04 948K
20260417T00Z_MSC_GDPS_WindDir_IsbL-0100_LatLon0.15_PT039H.grib2 2026-04-17 04:04 1.0M
20260417T00Z_MSC_GDPS_WindDir_IsbL-0150_LatLon0.15_PT039H.grib2 2026-04-17 04:04 1.0M
20260417T00Z_MSC_GDPS_WindDir_IsbL-0175_LatLon0.15_PT039H.grib2 2026-04-17 04:04 1.0M
20260417T00Z_MSC_GDPS_WindDir_IsbL-0200_LatLon0.15_PT039H.grib2 2026-04-17 04:04 1.1M
20260417T00Z_MSC_GDPS_WindDir_IsbL-0225_LatLon0.15_PT039H.grib2 2026-04-17 04:04 1.1M
20260417T00Z_MSC_GDPS_WindDir_IsbL-0250_LatLon0.15_PT039H.grib2 2026-04-17 04:04 1.1M
20260417T00Z_MSC_GDPS_WindDir_IsbL-0275_LatLon0.15_PT039H.grib2 2026-04-17 04:04 1.2M
20260417T00Z_MSC_GDPS_WindDir_IsbL-0300_LatLon0.15_PT039H.grib2 2026-04-17 04:04 1.2M
20260417T00Z_MSC_GDPS_WindDir_IsbL-0350_LatLon0.15_PT039H.grib2 2026-04-17 04:04 1.2M
20260417T00Z_MSC_GDPS_WindDir_IsbL-0400_LatLon0.15_PT039H.grib2 2026-04-17 04:04 1.3M
20260417T00Z_MSC_GDPS_WindDir_IsbL-0450_LatLon0.15_PT039H.grib2 2026-04-17 04:04 1.3M
20260417T00Z_MSC_GDPS_WindDir_IsbL-0500_LatLon0.15_PT039H.grib2 2026-04-17 04:04 1.4M
20260417T00Z_MSC_GDPS_WindDir_IsbL-0550_LatLon0.15_PT039H.grib2 2026-04-17 04:04 1.4M
20260417T00Z_MSC_GDPS_WindDir_IsbL-0600_LatLon0.15_PT039H.grib2 2026-04-17 04:04 1.5M
20260417T00Z_MSC_GDPS_WindDir_IsbL-0650_LatLon0.15_PT039H.grib2 2026-04-17 04:04 1.6M
20260417T00Z_MSC_GDPS_WindDir_IsbL-0700_LatLon0.15_PT039H.grib2 2026-04-17 04:04 1.7M
20260417T00Z_MSC_GDPS_WindDir_IsbL-0750_LatLon0.15_PT039H.grib2 2026-04-17 04:04 1.7M
20260417T00Z_MSC_GDPS_WindDir_IsbL-0800_LatLon0.15_PT039H.grib2 2026-04-17 04:04 1.8M
20260417T00Z_MSC_GDPS_WindDir_IsbL-0850_LatLon0.15_PT039H.grib2 2026-04-17 04:04 2.0M
20260417T00Z_MSC_GDPS_WindDir_IsbL-0875_LatLon0.15_PT039H.grib2 2026-04-17 04:04 2.0M
20260417T00Z_MSC_GDPS_WindDir_IsbL-0900_LatLon0.15_PT039H.grib2 2026-04-17 04:04 2.0M
20260417T00Z_MSC_GDPS_WindDir_IsbL-0925_LatLon0.15_PT039H.grib2 2026-04-17 04:04 2.0M
20260417T00Z_MSC_GDPS_WindDir_IsbL-0950_LatLon0.15_PT039H.grib2 2026-04-17 04:04 2.0M
20260417T00Z_MSC_GDPS_WindDir_IsbL-0970_LatLon0.15_PT039H.grib2 2026-04-17 04:04 2.0M
20260417T00Z_MSC_GDPS_WindDir_IsbL-0985_LatLon0.15_PT039H.grib2 2026-04-17 04:04 2.1M
20260417T00Z_MSC_GDPS_WindDir_IsbL-1000_LatLon0.15_PT039H.grib2 2026-04-17 04:04 2.1M
20260417T00Z_MSC_GDPS_WindDir_IsbL-1015_LatLon0.15_PT039H.grib2 2026-04-17 04:04 2.1M
20260417T00Z_MSC_GDPS_WindGust-Max_AGL-10m_LatLon0.15_PT039H.grib2 2026-04-17 04:04 2.2M
20260417T00Z_MSC_GDPS_WindGust-Min_AGL-10m_LatLon0.15_PT039H.grib2 2026-04-17 04:04 2.1M
20260417T00Z_MSC_GDPS_WindGust_AGL-10m_LatLon0.15_PT039H.grib2 2026-04-17 04:04 2.1M
20260417T00Z_MSC_GDPS_WindSpeed_AGL-10m_LatLon0.15_PT039H.grib2 2026-04-17 04:04 1.1M
20260417T00Z_MSC_GDPS_WindSpeed_AGL-120m_LatLon0.15_PT039H.grib2 2026-04-17 04:04 1.2M
20260417T00Z_MSC_GDPS_WindSpeed_AGL-40m_LatLon0.15_PT039H.grib2 2026-04-17 04:04 1.2M
20260417T00Z_MSC_GDPS_WindSpeed_AGL-80m_LatLon0.15_PT039H.grib2 2026-04-17 04:04 1.2M
20260417T00Z_MSC_GDPS_WindSpeed_IsbL-0001_LatLon0.15_PT039H.grib2 2026-04-17 04:04 641K
20260417T00Z_MSC_GDPS_WindSpeed_IsbL-0005_LatLon0.15_PT039H.grib2 2026-04-17 04:04 692K
20260417T00Z_MSC_GDPS_WindSpeed_IsbL-0010_LatLon0.15_PT039H.grib2 2026-04-17 04:04 631K
20260417T00Z_MSC_GDPS_WindSpeed_IsbL-0020_LatLon0.15_PT039H.grib2 2026-04-17 04:04 673K
20260417T00Z_MSC_GDPS_WindSpeed_IsbL-0030_LatLon0.15_PT039H.grib2 2026-04-17 04:04 864K
20260417T00Z_MSC_GDPS_WindSpeed_IsbL-0050_LatLon0.15_PT039H.grib2 2026-04-17 04:04 921K
20260417T00Z_MSC_GDPS_WindSpeed_IsbL-0100_LatLon0.15_PT039H.grib2 2026-04-17 04:04 1.1M
20260417T00Z_MSC_GDPS_WindSpeed_IsbL-0150_LatLon0.15_PT039H.grib2 2026-04-17 04:04 941K
20260417T00Z_MSC_GDPS_WindSpeed_IsbL-0175_LatLon0.15_PT039H.grib2 2026-04-17 04:04 1.0M
20260417T00Z_MSC_GDPS_WindSpeed_IsbL-0200_LatLon0.15_PT039H.grib2 2026-04-17 04:04 1.1M
20260417T00Z_MSC_GDPS_WindSpeed_IsbL-0225_LatLon0.15_PT039H.grib2 2026-04-17 04:04 1.1M
20260417T00Z_MSC_GDPS_WindSpeed_IsbL-0250_LatLon0.15_PT039H.grib2 2026-04-17 04:04 1.1M
20260417T00Z_MSC_GDPS_WindSpeed_IsbL-0275_LatLon0.15_PT039H.grib2 2026-04-17 04:04 1.1M
20260417T00Z_MSC_GDPS_WindSpeed_IsbL-0300_LatLon0.15_PT039H.grib2 2026-04-17 04:04 1.1M
20260417T00Z_MSC_GDPS_WindSpeed_IsbL-0350_LatLon0.15_PT039H.grib2 2026-04-17 04:04 1.1M
20260417T00Z_MSC_GDPS_WindSpeed_IsbL-0400_LatLon0.15_PT039H.grib2 2026-04-17 04:04 1.1M
20260417T00Z_MSC_GDPS_WindSpeed_IsbL-0450_LatLon0.15_PT039H.grib2 2026-04-17 04:04 1.1M
20260417T00Z_MSC_GDPS_WindSpeed_IsbL-0500_LatLon0.15_PT039H.grib2 2026-04-17 04:04 1.1M
20260417T00Z_MSC_GDPS_WindSpeed_IsbL-0550_LatLon0.15_PT039H.grib2 2026-04-17 04:04 1.1M
20260417T00Z_MSC_GDPS_WindSpeed_IsbL-0600_LatLon0.15_PT039H.grib2 2026-04-17 04:04 1.1M
20260417T00Z_MSC_GDPS_WindSpeed_IsbL-0650_LatLon0.15_PT039H.grib2 2026-04-17 04:04 1.4M
20260417T00Z_MSC_GDPS_WindSpeed_IsbL-0700_LatLon0.15_PT039H.grib2 2026-04-17 04:04 1.5M
20260417T00Z_MSC_GDPS_WindSpeed_IsbL-0750_LatLon0.15_PT039H.grib2 2026-04-17 04:04 1.6M
20260417T00Z_MSC_GDPS_WindSpeed_IsbL-0800_LatLon0.15_PT039H.grib2 2026-04-17 04:04 1.6M
20260417T00Z_MSC_GDPS_WindSpeed_IsbL-0850_LatLon0.15_PT039H.grib2 2026-04-17 04:04 1.7M
20260417T00Z_MSC_GDPS_WindSpeed_IsbL-0875_LatLon0.15_PT039H.grib2 2026-04-17 04:04 1.8M
20260417T00Z_MSC_GDPS_WindSpeed_IsbL-0900_LatLon0.15_PT039H.grib2 2026-04-17 04:04 1.8M
20260417T00Z_MSC_GDPS_WindSpeed_IsbL-0925_LatLon0.15_PT039H.grib2 2026-04-17 04:04 1.8M
20260417T00Z_MSC_GDPS_WindSpeed_IsbL-0950_LatLon0.15_PT039H.grib2 2026-04-17 04:04 1.8M
20260417T00Z_MSC_GDPS_WindSpeed_IsbL-0970_LatLon0.15_PT039H.grib2 2026-04-17 04:04 1.8M
20260417T00Z_MSC_GDPS_WindSpeed_IsbL-0985_LatLon0.15_PT039H.grib2 2026-04-17 04:04 1.9M
20260417T00Z_MSC_GDPS_WindSpeed_IsbL-1000_LatLon0.15_PT039H.grib2 2026-04-17 04:04 1.9M
20260417T00Z_MSC_GDPS_WindSpeed_IsbL-1015_LatLon0.15_PT039H.grib2 2026-04-17 04:04 1.8M
20260417T00Z_MSC_GDPS_WindU_AGL-10m_LatLon0.15_PT039H.grib2 2026-04-17 04:04 1.3M
20260417T00Z_MSC_GDPS_WindU_AGL-120m_LatLon0.15_PT039H.grib2 2026-04-17 04:04 1.0M
20260417T00Z_MSC_GDPS_WindU_AGL-40m_LatLon0.15_PT039H.grib2 2026-04-17 04:04 1.0M
20260417T00Z_MSC_GDPS_WindU_AGL-80m_LatLon0.15_PT039H.grib2 2026-04-17 04:04 1.0M
20260417T00Z_MSC_GDPS_WindU_IsbL-0001_LatLon0.15_PT039H.grib2 2026-04-17 04:04 642K
20260417T00Z_MSC_GDPS_WindU_IsbL-0005_LatLon0.15_PT039H.grib2 2026-04-17 04:04 693K
20260417T00Z_MSC_GDPS_WindU_IsbL-0010_LatLon0.15_PT039H.grib2 2026-04-17 04:04 705K
20260417T00Z_MSC_GDPS_WindU_IsbL-0020_LatLon0.15_PT039H.grib2 2026-04-17 04:04 741K
20260417T00Z_MSC_GDPS_WindU_IsbL-0030_LatLon0.15_PT039H.grib2 2026-04-17 04:04 740K
20260417T00Z_MSC_GDPS_WindU_IsbL-0050_LatLon0.15_PT039H.grib2 2026-04-17 04:04 710K
20260417T00Z_MSC_GDPS_WindU_IsbL-0100_LatLon0.15_PT039H.grib2 2026-04-17 04:04 931K
20260417T00Z_MSC_GDPS_WindU_IsbL-0150_LatLon0.15_PT039H.grib2 2026-04-17 04:04 1.0M
20260417T00Z_MSC_GDPS_WindU_IsbL-0175_LatLon0.15_PT039H.grib2 2026-04-17 04:04 1.0M
20260417T00Z_MSC_GDPS_WindU_IsbL-0200_LatLon0.15_PT039H.grib2 2026-04-17 04:04 1.1M
20260417T00Z_MSC_GDPS_WindU_IsbL-0225_LatLon0.15_PT039H.grib2 2026-04-17 04:04 861K
20260417T00Z_MSC_GDPS_WindU_IsbL-0250_LatLon0.15_PT039H.grib2 2026-04-17 04:04 861K
20260417T00Z_MSC_GDPS_WindU_IsbL-0275_LatLon0.15_PT039H.grib2 2026-04-17 04:04 888K
20260417T00Z_MSC_GDPS_WindU_IsbL-0300_LatLon0.15_PT039H.grib2 2026-04-17 04:04 880K
20260417T00Z_MSC_GDPS_WindU_IsbL-0350_LatLon0.15_PT039H.grib2 2026-04-17 04:04 893K
20260417T00Z_MSC_GDPS_WindU_IsbL-0400_LatLon0.15_PT039H.grib2 2026-04-17 04:04 891K
20260417T00Z_MSC_GDPS_WindU_IsbL-0450_LatLon0.15_PT039H.grib2 2026-04-17 04:04 1.1M
20260417T00Z_MSC_GDPS_WindU_IsbL-0500_LatLon0.15_PT039H.grib2 2026-04-17 04:04 1.1M
20260417T00Z_MSC_GDPS_WindU_IsbL-0550_LatLon0.15_PT039H.grib2 2026-04-17 04:04 1.1M
20260417T00Z_MSC_GDPS_WindU_IsbL-0600_LatLon0.15_PT039H.grib2 2026-04-17 04:04 1.1M
20260417T00Z_MSC_GDPS_WindU_IsbL-0650_LatLon0.15_PT039H.grib2 2026-04-17 04:04 1.2M
20260417T00Z_MSC_GDPS_WindU_IsbL-0700_LatLon0.15_PT039H.grib2 2026-04-17 04:04 1.2M
20260417T00Z_MSC_GDPS_WindU_IsbL-0750_LatLon0.15_PT039H.grib2 2026-04-17 04:04 1.3M
20260417T00Z_MSC_GDPS_WindU_IsbL-0800_LatLon0.15_PT039H.grib2 2026-04-17 04:04 1.3M
20260417T00Z_MSC_GDPS_WindU_IsbL-0850_LatLon0.15_PT039H.grib2 2026-04-17 04:04 1.4M
20260417T00Z_MSC_GDPS_WindU_IsbL-0875_LatLon0.15_PT039H.grib2 2026-04-17 04:04 1.4M
20260417T00Z_MSC_GDPS_WindU_IsbL-0900_LatLon0.15_PT039H.grib2 2026-04-17 04:04 1.4M
20260417T00Z_MSC_GDPS_WindU_IsbL-0925_LatLon0.15_PT039H.grib2 2026-04-17 04:04 1.4M
20260417T00Z_MSC_GDPS_WindU_IsbL-0950_LatLon0.15_PT039H.grib2 2026-04-17 04:04 1.4M
20260417T00Z_MSC_GDPS_WindU_IsbL-0970_LatLon0.15_PT039H.grib2 2026-04-17 04:04 1.4M
20260417T00Z_MSC_GDPS_WindU_IsbL-0985_LatLon0.15_PT039H.grib2 2026-04-17 04:04 1.4M
20260417T00Z_MSC_GDPS_WindU_IsbL-1000_LatLon0.15_PT039H.grib2 2026-04-17 04:04 1.4M
20260417T00Z_MSC_GDPS_WindU_IsbL-1015_LatLon0.15_PT039H.grib2 2026-04-17 04:04 1.3M
20260417T00Z_MSC_GDPS_WindV_AGL-10m_LatLon0.15_PT039H.grib2 2026-04-17 04:04 1.6M
20260417T00Z_MSC_GDPS_WindV_AGL-120m_LatLon0.15_PT039H.grib2 2026-04-17 04:04 1.0M
20260417T00Z_MSC_GDPS_WindV_AGL-40m_LatLon0.15_PT039H.grib2 2026-04-17 04:04 971K
20260417T00Z_MSC_GDPS_WindV_AGL-80m_LatLon0.15_PT039H.grib2 2026-04-17 04:04 1.0M
20260417T00Z_MSC_GDPS_WindV_IsbL-0001_LatLon0.15_PT039H.grib2 2026-04-17 04:04 703K
20260417T00Z_MSC_GDPS_WindV_IsbL-0005_LatLon0.15_PT039H.grib2 2026-04-17 04:04 781K
20260417T00Z_MSC_GDPS_WindV_IsbL-0010_LatLon0.15_PT039H.grib2 2026-04-17 04:04 629K
20260417T00Z_MSC_GDPS_WindV_IsbL-0020_LatLon0.15_PT039H.grib2 2026-04-17 04:04 669K
20260417T00Z_MSC_GDPS_WindV_IsbL-0030_LatLon0.15_PT039H.grib2 2026-04-17 04:04 666K
20260417T00Z_MSC_GDPS_WindV_IsbL-0050_LatLon0.15_PT039H.grib2 2026-04-17 04:04 707K
20260417T00Z_MSC_GDPS_WindV_IsbL-0100_LatLon0.15_PT039H.grib2 2026-04-17 04:04 853K
20260417T00Z_MSC_GDPS_WindV_IsbL-0150_LatLon0.15_PT039H.grib2 2026-04-17 04:04 1.0M
20260417T00Z_MSC_GDPS_WindV_IsbL-0175_LatLon0.15_PT039H.grib2 2026-04-17 04:04 815K
20260417T00Z_MSC_GDPS_WindV_IsbL-0200_LatLon0.15_PT039H.grib2 2026-04-17 04:04 848K
20260417T00Z_MSC_GDPS_WindV_IsbL-0225_LatLon0.15_PT039H.grib2 2026-04-17 04:04 857K
20260417T00Z_MSC_GDPS_WindV_IsbL-0250_LatLon0.15_PT039H.grib2 2026-04-17 04:04 915K
20260417T00Z_MSC_GDPS_WindV_IsbL-0275_LatLon0.15_PT039H.grib2 2026-04-17 04:04 940K
20260417T00Z_MSC_GDPS_WindV_IsbL-0300_LatLon0.15_PT039H.grib2 2026-04-17 04:04 932K
20260417T00Z_MSC_GDPS_WindV_IsbL-0350_LatLon0.15_PT039H.grib2 2026-04-17 04:04 943K
20260417T00Z_MSC_GDPS_WindV_IsbL-0400_LatLon0.15_PT039H.grib2 2026-04-17 04:04 883K
20260417T00Z_MSC_GDPS_WindV_IsbL-0450_LatLon0.15_PT039H.grib2 2026-04-17 04:04 881K
20260417T00Z_MSC_GDPS_WindV_IsbL-0500_LatLon0.15_PT039H.grib2 2026-04-17 04:04 1.1M
20260417T00Z_MSC_GDPS_WindV_IsbL-0550_LatLon0.15_PT039H.grib2 2026-04-17 04:04 1.1M
20260417T00Z_MSC_GDPS_WindV_IsbL-0600_LatLon0.15_PT039H.grib2 2026-04-17 04:04 1.1M
20260417T00Z_MSC_GDPS_WindV_IsbL-0650_LatLon0.15_PT039H.grib2 2026-04-17 04:04 1.2M
20260417T00Z_MSC_GDPS_WindV_IsbL-0700_LatLon0.15_PT039H.grib2 2026-04-17 04:04 1.2M
20260417T00Z_MSC_GDPS_WindV_IsbL-0750_LatLon0.15_PT039H.grib2 2026-04-17 04:04 1.3M
20260417T00Z_MSC_GDPS_WindV_IsbL-0800_LatLon0.15_PT039H.grib2 2026-04-17 04:04 1.3M
20260417T00Z_MSC_GDPS_WindV_IsbL-0850_LatLon0.15_PT039H.grib2 2026-04-17 04:04 1.4M
20260417T00Z_MSC_GDPS_WindV_IsbL-0875_LatLon0.15_PT039H.grib2 2026-04-17 04:04 1.4M
20260417T00Z_MSC_GDPS_WindV_IsbL-0900_LatLon0.15_PT039H.grib2 2026-04-17 04:04 1.4M
20260417T00Z_MSC_GDPS_WindV_IsbL-0925_LatLon0.15_PT039H.grib2 2026-04-17 04:04 1.4M
20260417T00Z_MSC_GDPS_WindV_IsbL-0950_LatLon0.15_PT039H.grib2 2026-04-17 04:04 1.4M
20260417T00Z_MSC_GDPS_WindV_IsbL-0970_LatLon0.15_PT039H.grib2 2026-04-17 04:04 1.4M
20260417T00Z_MSC_GDPS_WindV_IsbL-0985_LatLon0.15_PT039H.grib2 2026-04-17 04:04 1.4M
20260417T00Z_MSC_GDPS_WindV_IsbL-1000_LatLon0.15_PT039H.grib2 2026-04-17 04:04 1.7M
20260417T00Z_MSC_GDPS_WindV_IsbL-1015_LatLon0.15_PT039H.grib2 2026-04-17 04:04 1.6M